DUBAISAT-1

Last updated on Wed Oct 15 2025 00:02:29 GMT+0000 (Coordinated Universal Time)

1 35682U 09041B 25287.27968491 .00002172 00000+0 33512-3 0 9996 2 35682 97.9729 58.8687 0011437 136.1522 224.0596 14.74345645868853
UTC large
Height (km)
Speed (km/s)
/
Latitude / Longitude
Inclination (degrees)
Orbital Period (minutes)
Azimuth
Elevation
Range (km)
Doppler Factor

Next 0 passes for location: London (51.5072 / 0.1276)

Sorry there are no passes over London.